Location: Lafig�re
(44.4503°N, 4.0357°E)
Time: 14:43:21
(UTC+00:00)

Transit 2A Rocket - Pass Details

Date: 27 January 2021
Orbit: 594 x 908 km, 66.7° (Epoch: 06 March)

Event Time Altitude Azimuth Distance (km) Brightness Sun altitude
Rises 20:54:19 0° 315° (NW) 2,879 8.6 -43.9°
Enters shadow 20:55:15 - 311° (NW) 2,537 8.3 -44.1°
Reaches altitude 10° 20:57:01 10° 299° (WNW) 1,947 - -44.4°
Maximum altitude 21:00:16 21° 251° (WSW) 1,351 - -44.9°
Drops below altitude 10° 21:03:30 10° 201° (SSW) 1,924 - -45.4°
Sets 21:06:09 0° 185° (S) 2,835 - -45.9°
